Location: Poigny-la-Forêt
(48.6876°N, 1.7701°E)
Time: 17:31:25
(UTC+02:00)

ISS - Pass Details

Date: 24 May 2019
Orbit: 408 x 418 km, 51.6° (Epoch: 17 June)

Event Time Altitude Azimuth Distance (km) Brightness Sun altitude
Rises 22:33:18 0° 264° (W) 2,349 0.7 -7.9°
Reaches altitude 10° 22:35:24 10° 269° (W) 1,490 -0.3 -8.1°
Maximum altitude 22:38:42 57° 349° (N) 497 -3.1 -8.5°
Drops below altitude 10° 22:42:02 10° 69° (ENE) 1,500 -1.2 -8.9°
Sets 22:44:10 0° 74° (ENE) 2,366 -0.2 -9.1°
